Location: Alexandria
(38.8050°N, 77.0470°W)
Time: 15:37:00
(UTC-05:00)

Tiangong 2 - Pass Details

Date: 15 February 2018
Orbit: 384 x 389 km, 42.8° (Epoch: 23 February)

Event Time Altitude Azimuth Distance (km) Brightness Sun altitude
Rises 20:02:16 0° 287° (WNW) 2,263 6.2 -27.1°
Reaches altitude 10° 20:04:24 10° 295° (WNW) 1,407 4.8 -27.6°
Enters shadow 20:05:10 16° 300° (WNW) 1,120 4.1 -27.7°
